Powrót do katalogu

RASSVET-3 15

AktywnyNaukaPO
NORAD 68374·PAYLOAD·🇷🇺 Russia

Wystrzelony Mar 23, 2026 z Plesetsk Cosmodrome

Loading…

Następne Przeloty (najbliższe 24 godziny)

TLE

ŚwieżeSource: Space-Track

Epoka: Sep 14, 2026, 12:33 UTC

1 68374U 26061Q   26257.52294755  .00006656  00000-0  32220-3 0  9999
2 68374  82.2918 280.1289 0003664 102.6455 257.5188 15.18407970 27188

Śledź RASSVET-3 15 w czasie rzeczywistym z AllMySat

Download on the App Store